Windom, MN

8:17 PM CDT on October 16, 2017 (GMT -0500)
Windom Municipal

Weather History for KMWM - February, 2012

Change the Weather History Date:

Thursday, February 23, 2012

  Actual Average Record
Temperature  
Mean Temperature 27 °F -  
Max Temperature 30 °F 34 °F 62 °F (1958)
Min Temperature 24 °F 14 °F -13 °F (1989)
Degree Days  
Heating Degree Days 38    
Moisture  
Dew Point 28 °F    
Average Humidity 97    
Maximum Humidity 100    
Minimum Humidity 93    
Precipitation  
Precipitation 0.00 in - - ()
Sea Level Pressure  
Sea Level Pressure 29.46 in    
Wind  
Wind Speed 5 mph (North)    
Max Wind Speed 23 mph    
Max Gust Speed 25 mph    
Visibility 7 miles    
Events Snow    
Averages and records for this station are not official NWS values.
T = Trace of Precipitation, MM = Missing Value Source: NWS Daily Summary

Daily Weather History Graph

Daily Weather History Graph

Search for Another Location

Airport or City:

Trip Planner

Search our weather history database for the weather conditions in past years. The results will help you decide how hot, cold, wet, or windy it might be!

Date:

Astronomy

Feb. 23, 2012 Rise Set
Actual Time 7:07 AM CST 6:00 PM CST
Civil Twilight 6:38 AM CST 6:29 PM CST
Nautical Twilight 6:05 AM CST 7:03 PM CST
Astronomical Twilight 5:32 AM CST 7:36 PM CST
Moon 7:29 AM CST (2/23) 8:13 PM CST (2/23)
Length of Visible Light 11h 50m
Length of Day
10h 52m
Waxing Crescent, 3% of the Moon is Illuminated
Feb 23
Waxing Crescent
Feb 29
First Quarter
Mar 8
Full
Mar 14
Last Quarter
Mar 22
New

Hourly Weather History & Observations

Time (CST) Temp. Windchill Dew Point Humidity Pressure Visibility Wind Dir Wind Speed Gust Speed Precip Events Conditions
12:12 AM 26.6 °F - 26.6 °F 100% 29.39 in 10.0 mi Calm Calm - N/A   Clear
12:32 AM 26.6 °F - 26.6 °F 100% 29.39 in 10.0 mi Calm Calm - N/A   Scattered Clouds
12:53 AM 26.6 °F - 26.6 °F 100% 29.40 in 10.0 mi Calm Calm - N/A   Scattered Clouds
1:12 AM 26.6 °F - 26.6 °F 100% 29.39 in 7.0 mi Calm Calm - N/A   Clear
1:32 AM 24.8 °F - 24.8 °F 100% 29.38 in 7.0 mi Calm Calm - N/A   Clear
1:53 AM 26.6 °F - 26.6 °F 100% 29.41 in 7.0 mi Calm Calm - N/A   Clear
2:32 AM 24.8 °F - 24.8 °F 100% 29.40 in 7.0 mi Calm Calm - N/A   Clear
2:53 AM 24.8 °F - 24.8 °F 100% 29.38 in 10.0 mi Calm Calm - N/A   Clear
3:12 AM 24.8 °F - 24.8 °F 100% 29.38 in 10.0 mi Calm Calm - N/A   Scattered Clouds
3:32 AM 26.6 °F - 26.6 °F 100% 29.38 in 10.0 mi Calm Calm - N/A   Overcast
3:53 AM 26.6 °F - 26.6 °F 100% 29.38 in 10.0 mi Calm Calm - N/A   Overcast
4:12 AM 28.4 °F 23.3 °F 28.4 °F 100% 29.38 in 10.0 mi North 4.6 mph - N/A   Overcast
4:32 AM 30.2 °F 26.7 °F 28.4 °F 93% 29.39 in 10.0 mi NNE 3.5 mph - N/A   Overcast
4:53 AM 30.2 °F 24.3 °F 28.4 °F 93% 29.40 in 10.0 mi NNE 5.8 mph - N/A   Overcast
5:12 AM 30.2 °F 23.4 °F 30.2 °F 100% 29.39 in 10.0 mi NNE 6.9 mph - N/A   Overcast
5:32 AM 30.2 °F 21.9 °F 30.2 °F 100% 29.39 in 10.0 mi NNE 9.2 mph - N/A   Overcast
5:53 AM 30.2 °F 24.3 °F 28.4 °F 93% 29.39 in 10.0 mi NE 5.8 mph - N/A   Overcast
6:12 AM 28.4 °F 23.3 °F 28.4 °F 100% 29.39 in 10.0 mi NE 4.6 mph - N/A   Overcast
6:32 AM 28.4 °F 22.2 °F 28.4 °F 100% 29.40 in 10.0 mi NNE 5.8 mph - N/A   Overcast
6:53 AM 30.2 °F - 28.4 °F 93% 29.42 in 10.0 mi Calm Calm - N/A   Overcast
7:12 AM 30.2 °F 24.3 °F 28.4 °F 93% 29.42 in 10.0 mi NNE 5.8 mph - N/A   Overcast
7:32 AM 30.2 °F 24.3 °F 28.4 °F 93% 29.42 in 10.0 mi NE 5.8 mph - N/A   Overcast
7:53 AM 30.2 °F 23.4 °F 28.4 °F 93% 29.42 in 10.0 mi NE 6.9 mph - N/A   Overcast
8:12 AM 30.2 °F 24.3 °F 28.4 °F 93% 29.42 in 10.0 mi NE 5.8 mph - N/A   Mostly Cloudy
8:32 AM 30.2 °F 22.6 °F 28.4 °F 93% 29.43 in 10.0 mi NE 8.1 mph - N/A   Mostly Cloudy
8:52 AM 30.2 °F 22.6 °F 28.4 °F 93% 29.43 in 10.0 mi NE 8.1 mph - N/A   Mostly Cloudy
9:12 AM 30.2 °F 24.3 °F 28.4 °F 93% 29.43 in 7.0 mi NE 5.8 mph - N/A   Overcast
9:32 AM 30.2 °F 26.7 °F 30.2 °F 100% 29.44 in 7.0 mi NE 3.5 mph - N/A   Overcast
9:52 AM 30.2 °F 25.4 °F 30.2 °F 100% 29.44 in 7.0 mi ENE 4.6 mph - N/A   Overcast
10:13 AM 30.2 °F 25.4 °F 30.2 °F 100% 29.45 in 5.0 mi East 4.6 mph - N/A   Mostly Cloudy
10:32 AM 30.2 °F 24.3 °F 30.2 °F 100% 29.45 in 5.0 mi NNE 5.8 mph - N/A   Mostly Cloudy
10:53 AM 30.2 °F 23.4 °F 30.2 °F 100% 29.46 in 4.0 mi NNE 6.9 mph - N/A   Overcast
11:12 AM 30.2 °F 26.7 °F 30.2 °F 100% 29.48 in 5.0 mi NNE 3.5 mph - N/A   Overcast
11:32 AM 30.2 °F 22.6 °F 30.2 °F 100% 29.50 in 5.0 mi North 8.1 mph - N/A   Overcast
11:53 AM 30.2 °F 20.2 °F 30.2 °F 100% 29.51 in 5.0 mi North 12.7 mph - N/A   Overcast
12:12 PM 30.2 °F 19.3 °F 28.4 °F 93% 29.51 in 3.0 mi NNW 15.0 mph - N/A Snow Light Snow
12:32 PM 30.2 °F 19.8 °F 28.4 °F 93% 29.51 in 1.2 mi NNW 13.8 mph - N/A Snow Light Snow
12:53 PM 30.2 °F 19.8 °F 28.4 °F 93% 29.51 in 1.8 mi North 13.8 mph - N/A Snow Light Snow
1:12 PM 30.2 °F 20.2 °F 28.4 °F 93% 29.51 in 2.0 mi North 12.7 mph - N/A Snow Light Snow
1:32 PM 30.2 °F 20.2 °F 28.4 °F 93% 29.53 in 3.0 mi NNW 12.7 mph - N/A Snow Light Snow
1:53 PM 28.4 °F 17.5 °F 28.4 °F 100% 29.53 in 4.0 mi NNW 13.8 mph - N/A   Overcast
2:12 PM 28.4 °F 18.0 °F 28.4 °F 100% 29.53 in 2.0 mi North 12.7 mph - N/A Snow Light Snow
2:32 PM 28.4 °F 16.6 °F 28.4 °F 100% 29.53 in 2.5 mi NNW 16.1 mph - N/A Snow Light Snow
2:53 PM 28.4 °F 16.6 °F 28.4 °F 100% 29.54 in 4.0 mi NNW 16.1 mph - N/A   Overcast
3:12 PM 28.4 °F 15.4 °F 28.4 °F 100% 29.55 in 4.0 mi NNW 19.6 mph 24.2 mph N/A   Overcast
3:32 PM 28.4 °F 14.4 °F 28.4 °F 100% 29.56 in 4.0 mi NNW 23.0 mph - N/A   Overcast
3:53 PM 28.4 °F 16.2 °F 28.4 °F 100% 29.57 in 4.0 mi NNW 17.3 mph 23.0 mph N/A   Mostly Cloudy
4:13 PM 28.4 °F 15.8 °F 26.6 °F 93% 29.58 in 4.0 mi NNW 18.4 mph - N/A   Mostly Cloudy
4:32 PM 28.4 °F 15.4 °F 26.6 °F 93% 29.58 in 5.0 mi NNW 19.6 mph - N/A   Overcast
4:53 PM 28.4 °F 16.2 °F 26.6 °F 93% 29.59 in 5.0 mi NNW 17.3 mph 24.2 mph N/A   Mostly Cloudy
5:12 PM 28.4 °F 15.4 °F 28.4 °F 100% 29.59 in 7.0 mi NNW 19.6 mph 25.3 mph N/A   Mostly Cloudy
5:32 PM 28.4 °F 15.4 °F 28.4 °F 100% 29.60 in 7.0 mi NNW 19.6 mph - N/A   Overcast
5:53 PM 28.4 °F 15.4 °F 26.6 °F 93% 29.61 in 7.0 mi NNW 19.6 mph 25.3 mph N/A Snow Light Snow
6:12 PM 28.4 °F 15.8 °F 26.6 °F 93% 29.62 in 7.0 mi NNW 18.4 mph 24.2 mph N/A Snow Light Snow
6:32 PM 28.4 °F 15.4 °F 26.6 °F 93% 29.64 in 3.0 mi NNW 19.6 mph 25.3 mph N/A Snow Light Snow
6:52 PM 28.4 °F 15.4 °F 26.6 °F 93% 29.65 in 3.0 mi NNW 19.6 mph 23.0 mph N/A Snow Light Snow
7:12 PM 28.4 °F 16.2 °F 26.6 °F 93% 29.66 in 4.0 mi NNW 17.3 mph - N/A Snow Light Snow
7:33 PM 28.4 °F 19.1 °F 26.6 °F 93% 29.66 in 4.0 mi North 10.4 mph - N/A Snow Light Snow
7:53 PM 28.4 °F 19.1 °F 26.6 °F 93% 29.68 in 7.0 mi NNW 10.4 mph - N/A Snow Light Snow
8:12 PM 28.4 °F 19.7 °F 26.6 °F 93% 29.69 in 5.0 mi NW 9.2 mph - N/A Snow Light Snow
8:33 PM 28.4 °F 19.7 °F 26.6 °F 93% 29.69 in 4.0 mi WNW 9.2 mph - N/A Snow Light Snow
8:52 PM 26.6 °F 16.2 °F 26.6 °F 100% 29.69 in 3.0 mi WNW 11.5 mph - N/A Snow Light Snow
9:13 PM 26.6 °F 16.8 °F 26.6 °F 100% 29.70 in 2.5 mi NW 10.4 mph - N/A Snow Light Snow
9:32 PM 26.6 °F 17.5 °F 26.6 °F 100% 29.70 in 1.8 mi NW 9.2 mph - N/A Snow Light Snow
9:53 PM 26.6 °F 16.8 °F 26.6 °F 100% 29.70 in 1.5 mi NW 10.4 mph - N/A Snow Light Snow
10:13 PM 26.6 °F 16.8 °F 26.6 °F 100% 29.71 in 1.8 mi WNW 10.4 mph - N/A Snow Light Snow
10:32 PM 26.6 °F 16.8 °F 26.6 °F 100% 29.71 in 1.5 mi WNW 10.4 mph - N/A Snow Light Snow
10:53 PM 26.6 °F 18.2 °F 26.6 °F 100% 29.71 in 1.8 mi NW 8.1 mph - N/A Snow Light Snow
11:12 PM 26.6 °F 16.8 °F 26.6 °F 100% 29.71 in 2.0 mi WNW 10.4 mph - N/A Snow Light Snow
11:32 PM 26.6 °F 15.7 °F 26.6 °F 100% 29.71 in 1.8 mi WNW 12.7 mph - N/A Snow Light Snow
11:53 PM 28.4 °F 18.0 °F 28.4 °F 100% 29.71 in 2.0 mi NW 12.7 mph - N/A Snow Light Snow